Voltar ao catálogo

STARLINK-35900

AtivoComunicaçõesVLEO
NORAD 66886·PAYLOAD·🇺🇸 United States

Lançado Dec 4, 2025 de Vandenberg Space Force Base

Loading…

Próximas Passagens (próximas 24 horas)

TLE

AtualizadoSource: CelesTrak SupGP

Época: Sep 14, 2026, 21:21 UTC

1 66886C 25283J   26257.89006944  .00038914  00000+0  11495-2 0  2579
2 66886  53.1586 221.8161 0001408  91.4587 190.0165 15.34376514    14

Acompanhe STARLINK-35900 em tempo real com AllMySat

Download on the App Store